Regional Weather Roundup
Issued by NWS

Home | Current Version | Previous Version | Graphics & Text | Print | Product List | Glossary On
Versions: 1 2 3 4 5 6 7 8 9 10 11 12 13 14 15 16 17 18 19 20 21 22 23 24 25 26 27 28 29 30 31 32 33 34 35 36 37 38 39 40 41 42 43 44 45 46 47 48 49 50
000
ASUS43 KBIS 041310
RWRND

NORTH DAKOTA REGIONAL WEATHER ROUNDUP
NATIONAL WEATHER SERVICE BISMARCK ND
800 AM CDT MON MAY 04 2015

NOTE: "FAIR" INDICATES FEW OR NO CLOUDS BELOW 12,000 FEET WITH NO
SIGNIFICANT WEATHER AND/OR OBSTRUCTIONS TO VISIBILITY.


NDZ001>003-009>011-017-041400-
NORTHWEST NORTH DAKOTA

CITY           SKY/WX    TMP DP  RH WIND       PRES   REMARKS
WILLISTON      MOSUNNY   40  27  59 NE5       30.16R
MINOT          SUNNY     40  30  67 SE3       30.17R
MINOT AFB      SUNNY     41  35  80 S2        30.16R
$$

NDZ018>021-031>035-040>046-041400-
SOUTHWEST NORTH DAKOTA

CITY           SKY/WX    TMP DP  RH WIND       PRES   REMARKS
BISMARCK       CLOUDY    39  30  70 NE3       30.21R
DICKINSON      PTSUNNY   42  30  62 SE9       30.17R
GARRISON         N/A     40  33  76 CALM      30.18R
HETTINGER ARPT CLOUDY    44  27  51 SE6       30.20R
$$

NDZ004>008-012>016-024-026-027-054-041400-
NORTHEAST NORTH DAKOTA

CITY           SKY/WX    TMP DP  RH WIND       PRES   REMARKS
GRAND FORKS    MOSUNNY   44  36  73 N3        30.20R
GRND FRKS AFB  SUNNY     44  35  72 N3        30.20R
DEVILS LAKE    SUNNY     45  36  70 CALM      30.19R
$$

NDZ022-023-025-028>030-036>039-047>053-041400-
SOUTHEAST NORTH DAKOTA

CITY           SKY/WX    TMP DP  RH WIND       PRES   REMARKS
FARGO          PTSUNNY   47  31  53 NE5       30.19R
JAMESTOWN      CLOUDY    43  30  60 N7        30.19R
$$




USA.gov is the U.S. government's official web portal to all federal, state and local government web resources and services.